User: anonymous
Location: Unspecified
(0.0000°N, 0.0000°E)
Time: 23:40:36
(UTC+00:00)
Language:

RAX-2 - Orbit

View from above orbital plane
View from above orbital plane
View from above satellite
View from above satellite

Ground track
Ground track

The orbit data is extracted from the following two-line orbital elements,

1 37853U 11061D   14212.13690154  .00002583  00000-0  18344-3 0  8747
2 37853 101.7102 262.7564 0215071 289.5762 132.4493 14.89827257149202
Epoch (UTC): 31 July 2014 03:17:08
Eccentricity: 0.0215071
inclination: 101.7102°
perigee height: 448 km
apogee height: 748 km
right ascension of ascending node: 262.7564°
argument of perigee: 289.5762°
revolutions per day: 14.89827257
mean anomaly at epoch: 132.4493°
orbit number at epoch: 14920

The dashed part of the orbit path shows where the satellite is in the earth's shadow,  

DLR